Theta_e
288 288 287 287 287 285 285 287 289 289 289 290 290 290 291 291 291 292 294 295 296 296 297 299 302 305 308 312 313 312 311 312
288 288 288 287 285 284 285 287 288 289 289 290 290 290 291 292 293 294 295 295 295 297 298 301 303 303 309 313 313 312 311 312
287 286 286 285 284 284 286 287 288 289 290 290 289 290 291 292 297 298 297 297 299 300 301 303 303 304 310 312 312 312 311 311
286 285 285 285 283 284 286 287 288 289 290 290 289 289 294 296 296 297 298 299 299 300 300 304 303 308 312 312 311 311 311 311
286 285 285 284 283 284 286 287 287 288 289 289 289 293 296 296 296 297 298 300 301 302 301 303 307 309 311 310 309 309 309 309
285 285 284 283 283 284 286 286 287 288 288 288 292 295 295 295 296 297 298 300 302 302 302 303 304 306 309 308 307 306 305 305
285 285 285 284 283 284 285 285 287 287 288 289 294 294 294 295 295 297 297 298 298 298 298 298 298 296 298 302 302 301 300 298
287 286 286 285 285 285 286 286 286 287 287 291 293 293 293 294 295 295 295 296 295 295 296 295 295 295 295 295 298 297 297 296
288 287 287 285 284 286 286 286 286 286 288 292 292 290 289 290 294 294 294 294 293 293 294 293 293 294 293 293 295 293 293 294
290 288 287 286 285 286 286 286 285 286 289 291 291 289 289 290 291 292 292 292 291 292 292 292 292 293 293 294 292 290 289 290
290 287 287 286 286 286 286 286 285 286 289 290 289 289 289 289 288 287 288 287 288 287 288 287 290 292 292 293 291 288 287 287
288 288 287 286 287 286 286 286 287 286 288 289 289 289 289 288 287 287 287 287 287 286 286 287 287 289 291 291 289 287 286 286
287 286 285 286 287 286 286 287 286 287 288 287 287 287 288 287 286 286 287 287 286 286 285 285 286 288 290 290 289 289 286 284
286 282 282 285 287 286 286 286 286 287 287 287 286 287 287 287 287 287 286 287 285 285 284 283 285 287 289 288 288 287 284 285
281 281 282 282 283 286 285 286 287 288 287 286 287 286 286 287 287 288 287 286 284 283 282 282 283 284 285 285 285 285 284 283
282 282 283 284 284 285 286 287 288 287 287 287 287 287 287 286 287 287 284 286 285 283 283 281 281 281 284 284 281 281 282 278
281 281 282 284 284 285 286 288 288 287 287 287 287 287 287 286 286 289 288 288 287 287 282 279 284 286 286 286 285 285 283 273
282 283 284 284 282 285 287 288 288 288 288 287 287 287 287 286 286 284 286 288 288 288 287 287 286 287 287 287 286 286 283 278
285 284 284 285 285 286 287 288 288 288 287 288 288 288 287 287 287 286 285 282 282 286 286 287 287 287 287 287 286 281 277 273
285 284 284 285 285 286 287 288 288 287 288 288 288 287 287 287 286 286 285 283 282 285 286 286 287 287 288 287 280 280 278 276
Wind_Speed
7 8 6 6 6 7 6 6 5 4 3 3 4 2 3 4 5 5 4 3 4 3 2 3 3 2 2 1 5 8 7 7
7 7 7 6 6 7 6 6 5 4 4 4 3 3 3 4 4 4 4 4 4 3 3 3 2 2 2 5 8 9 9 9
7 8 8 7 7 7 6 6 6 5 4 3 1 4 3 4 5 3 5 4 3 3 3 3 2 2 1 5 7 9 9 8
7 7 8 7 7 7 6 6 5 6 4 3 2 4 4 5 3 3 5 4 4 3 3 2 2 0 4 8 7 8 8 8
6 7 7 7 8 7 6 6 5 5 5 3 3 4 3 5 4 3 4 4 3 3 3 3 3 2 4 7 7 7 6 6
8 7 8 8 7 6 5 6 5 5 5 5 4 3 1 2 4 2 2 1 4 4 3 4 4 2 5 6 7 7 6 5
8 8 10 11 10 9 7 7 5 5 6 4 3 2 1 2 2 2 4 4 4 5 5 5 3 6 11 8 7 7 7 6
12 12 12 12 12 12 10 6 6 6 6 5 4 3 2 3 1 2 4 3 5 6 6 6 5 9 13 12 7 7 7 7
7 9 11 8 9 8 9 8 7 6 6 5 5 5 3 4 4 3 3 5 5 5 5 7 6 11 14 15 10 9 8 7
8 8 10 14 12 11 9 9 8 7 7 6 5 6 6 5 4 3 4 5 5 5 7 8 7 9 11 14 10 11 10 8
6 6 10 11 14 14 12 12 11 9 7 6 5 6 6 6 5 2 4 5 5 8 8 7 8 11 10 11 9 11 8 9
2 6 10 13 14 15 13 15 11 8 6 6 6 6 7 7 4 3 6 7 7 9 7 8 7 9 12 13 9 8 8 7
1 1 4 10 13 13 14 10 10 10 8 6 5 5 6 9 7 5 5 8 7 8 8 6 6 11 16 17 14 12 11 8
1 2 1 5 9 12 10 12 11 11 10 7 6 5 7 10 9 7 5 6 5 6 7 5 5 7 17 18 19 17 12 8
3 3 3 3 3 5 10 11 13 12 10 8 9 7 6 5 6 7 7 7 6 6 6 5 5 6 6 8 11 17 13 13
5 4 5 5 4 7 10 12 13 10 9 8 7 9 8 4 5 6 3 3 5 6 8 9 6 3 8 9 7 7 11 10
4 2 2 5 6 7 10 12 13 11 9 8 7 7 7 7 8 12 9 11 11 11 5 3 11 17 16 17 18 21 17 4
6 7 6 5 6 7 10 12 12 12 11 8 8 8 8 7 8 9 8 14 12 14 14 11 17 18 19 21 22 16 10 6
5 6 8 8 9 9 10 12 11 10 12 9 8 8 8 8 8 8 8 8 5 8 13 17 18 17 20 22 15 6 4 3
4 6 7 9 9 10 12 13 13 11 9 9 8 8 8 7 6 7 7 6 8 8 8 11 17 18 17 14 4 8 7 5
Wind_Direction
180 167 171 170 184 182 189 190 194 153 171 188 229 256 288 288 301 301 295 282 302 301 312 302 305 324 332 148 119 134 138 134
180 166 161 160 177 190 169 183 189 160 186 191 244 267 290 287 281 276 283 288 280 283 288 293 313 284 266 118 128 120 122 126
180 159 160 171 174 197 166 184 205 164 187 197 236 286 301 285 292 296 282 260 243 249 245 249 259 232 152 127 128 130 132 129
154 178 174 175 176 197 172 187 205 156 191 164 267 277 289 297 297 309 283 255 223 209 212 196 266 280 89 134 116 116 127 133
179 190 181 181 174 190 188 173 197 167 179 182 214 263 318 312 314 325 290 256 157 180 182 171 196 131 104 111 111 108 102 112
196 195 183 179 185 178 200 162 193 183 163 203 222 266 312 335 305 323 304 182 122 120 84 77 78 112 121 107 112 119 105 90
194 184 193 188 186 177 186 170 183 194 169 202 193 269 56 58 329 64 55 39 49 85 109 87 54 78 106 112 107 104 109 103
210 198 192 191 179 184 176 154 171 192 179 193 163 159 108 96 86 90 83 73 56 45 58 68 73 87 91 93 94 95 95 104
209 196 188 167 171 154 154 164 163 193 188 180 177 142 134 117 126 111 78 75 78 61 55 73 56 90 98 95 93 86 78 83
203 184 169 169 168 157 163 160 163 193 188 180 180 147 139 136 122 100 100 85 73 76 75 76 64 70 95 100 95 86 72 64
193 151 160 168 162 157 172 169 184 182 189 166 167 150 141 127 116 74 90 99 100 84 68 65 72 61 83 101 104 98 90 67
195 187 180 157 162 168 169 187 176 154 158 155 161 152 136 120 100 105 107 103 86 86 71 70 64 61 77 88 98 103 99 83
226 190 155 162 166 170 181 167 147 152 150 151 154 144 135 128 116 99 109 110 106 105 84 63 70 79 78 87 94 105 104 95
40 104 37 169 182 175 167 149 150 153 150 152 140 143 141 138 135 125 113 119 115 112 110 98 75 88 96 100 100 101 99 101
101 145 192 170 144 165 148 152 154 157 154 148 146 141 135 128 135 140 140 133 129 127 124 121 120 122 117 106 103 101 98 101
172 196 202 150 148 149 155 155 158 154 153 153 149 152 142 122 140 133 63 106 153 156 152 149 155 159 128 127 123 122 113 104
162 184 200 161 159 165 166 165 160 156 156 159 156 149 145 137 104 76 99 95 99 108 99 27 118 140 134 130 128 129 132 75
201 172 161 185 171 177 172 170 172 165 158 155 157 155 153 150 142 128 81 92 102 110 116 128 138 138 137 137 137 139 122 119
177 166 173 188 187 180 178 176 172 159 158 161 163 157 155 162 155 142 148 144 124 102 124 134 142 143 143 141 127 118 82 106
181 164 174 192 197 176 180 182 173 161 164 162 156 156 151 151 151 142 138 143 134 131 126 149 153 151 153 150 137 149 140 136